Grayling, MI

11:07 PM EDT on July 21, 2017 (GMT -0400)
Grayling

Weather History for KGOV - August, 2013

Change the Weather History Date:

Friday, August 23, 2013

  Actual Average (KHTL) Record (KHTL)
Temperature  
Mean Temperature 58 °F -  
Max Temperature 79 °F 74 °F 97 °F (1922)
Min Temperature 38 °F 52 °F 31 °F (1951)
Degree Days  
Heating Degree Days 6    
Growing Degree Days 8 (Base 50)    
Moisture  
Dew Point 48 °F    
Average Humidity 66    
Maximum Humidity 100    
Minimum Humidity 30    
Precipitation  
Precipitation 0.00 in - - ()
Sea Level Pressure  
Sea Level Pressure 30.19 in    
Wind  
Wind Speed 2 mph (East)    
Max Wind Speed 16 mph    
Max Gust Speed 17 mph    
Visibility 9 miles    
Events Fog    
Averages and records for this station are not official NWS values.
T = Trace of Precipitation, MM = Missing Value Source: NWS Daily Summary

Daily Weather History Graph

Daily Weather History Graph

Search for Another Location

Airport or City:

Trip Planner

Search our weather history database for the weather conditions in past years. The results will help you decide how hot, cold, wet, or windy it might be!

Date:

Astronomy

Aug. 23, 2013 Rise Set
Actual Time 6:51 AM EDT 8:31 PM EDT
Civil Twilight 6:20 AM EDT 9:01 PM EDT
Nautical Twilight 5:42 AM EDT 9:39 PM EDT
Astronomical Twilight 5:01 AM EDT 10:19 PM EDT
Moon 9:38 PM EDT (8/23) 9:55 AM EDT (8/23)
Length of Visible Light 14h 41m
Length of Day
13h 39m
Waning Gibbous, 91% of the Moon is Illuminated
Aug 23
Waning Gibbous
Aug 28
Last Quarter
Sep 5
New
Sep 12
First Quarter
Sep 19
Full

Hourly Weather History & Observations

Time (EDT) Temp. Dew Point Humidity Pressure Visibility Wind Dir Wind Speed Gust Speed Precip Events Conditions
12:15 AM 55.0 °F 48.9 °F 80% 30.14 in 10.0 mi Calm Calm - N/A   Clear
12:34 AM 52.9 °F 50.5 °F 92% 30.14 in 10.0 mi Calm Calm - N/A   Clear
12:55 AM 51.3 °F 48.0 °F 89% 30.15 in 10.0 mi Calm Calm - N/A   Clear
1:15 AM 48.9 °F 47.3 °F 94% 30.16 in 10.0 mi Calm Calm - N/A   Clear
1:34 AM 48.4 °F 46.8 °F 94% 30.16 in 10.0 mi Calm Calm - N/A   Clear
1:55 AM 48.4 °F 47.1 °F 95% 30.16 in 10.0 mi Calm Calm - N/A   Clear
2:15 AM 48.4 °F 48.2 °F 99% 30.16 in 10.0 mi Calm Calm - N/A   Clear
2:34 AM 48.4 °F 48.2 °F 99% 30.16 in 10.0 mi Calm Calm - N/A   Clear
2:55 AM 46.6 °F 46.4 °F 99% 30.16 in 7.0 mi Calm Calm - N/A   Clear
3:15 AM 45.9 °F 45.9 °F 100% 30.16 in 1.0 mi Calm Calm - N/A   Mist
3:35 AM 42.8 °F 41.9 °F 97% 30.16 in 10.0 mi Calm Calm - N/A   Clear
3:55 AM 42.1 °F 41.7 °F 99% 30.16 in 7.0 mi Calm Calm - N/A   Clear
4:15 AM 45.1 °F 44.6 °F 98% 30.16 in 10.0 mi Calm Calm - N/A   Clear
4:35 AM 42.3 °F 42.1 °F 99% 30.16 in 10.0 mi Calm Calm - N/A   Clear
4:55 AM 40.6 °F 40.6 °F 100% 30.16 in 4.0 mi Calm Calm - N/A   Clear
5:15 AM 42.8 °F 42.8 °F 100% 30.17 in 10.0 mi Calm Calm - N/A   Clear
5:35 AM 39.4 °F 39.4 °F 100% 30.17 in 10.0 mi Calm Calm - N/A   Clear
5:55 AM 39.0 °F 38.5 °F 98% 30.18 in 1.2 mi Calm Calm - N/A   Mist
6:15 AM 38.8 °F 38.7 °F 99% 30.19 in 1.2 mi Calm Calm - N/A   Mist
6:35 AM 39.0 °F 38.7 °F 99% 30.19 in 10.0 mi Calm Calm - N/A   Clear
6:55 AM 40.1 °F 40.1 °F 100% 30.19 in 0.5 mi Calm Calm - N/A Fog Fog
7:15 AM 39.7 °F 38.5 °F 95% 30.20 in 10.0 mi Calm Calm - N/A   Clear
7:35 AM 40.8 °F 40.1 °F 97% 30.20 in 10.0 mi Calm Calm - N/A   Clear
7:55 AM 47.1 °F 46.6 °F 98% 30.21 in 10.0 mi Calm Calm - N/A   Clear
8:14 AM 50.4 °F 48.9 °F 95% 30.20 in 10.0 mi Calm Calm - N/A   Clear
8:35 AM 54.3 °F 50.4 °F 86% 30.21 in 10.0 mi Calm Calm - N/A   Clear
8:55 AM 55.9 °F 50.9 °F 83% 30.21 in 10.0 mi Calm Calm - N/A   Clear
9:14 AM 58.5 °F 52.2 °F 80% 30.21 in 10.0 mi Calm Calm - N/A   Clear
9:35 AM 61.2 °F 54.1 °F 78% 30.21 in 10.0 mi ENE 4.6 mph - N/A   Clear
9:55 AM 63.5 °F 54.9 °F 73% 30.21 in 10.0 mi Calm Calm - N/A   Clear
10:14 AM 67.6 °F 56.5 °F 67% 30.22 in 10.0 mi East 3.5 mph - N/A   Clear
10:35 AM 68.5 °F 54.7 °F 61% 30.23 in 10.0 mi NE 4.6 mph - N/A   Clear
10:55 AM 70.7 °F 54.3 °F 56% 30.23 in 10.0 mi ESE 3.5 mph - N/A   Clear
11:14 AM 73.6 °F 54.5 °F 51% 30.23 in 10.0 mi Calm Calm - N/A   Clear
11:35 AM 73.6 °F 52.7 °F 48% 30.23 in 10.0 mi Calm Calm - N/A   Scattered Clouds
11:55 AM 73.9 °F 49.6 °F 42% 30.23 in 10.0 mi SE 5.8 mph - N/A   Scattered Clouds
12:14 PM 73.6 °F 50.2 °F 44% 30.23 in 10.0 mi NE 6.9 mph - N/A   Mostly Cloudy
12:35 PM 73.9 °F 49.8 °F 43% 30.22 in 10.0 mi NE 4.6 mph - N/A   Scattered Clouds
12:55 PM 76.1 °F 49.6 °F 39% 30.21 in 10.0 mi NNE 5.8 mph - N/A   Clear
1:14 PM 75.9 °F 49.3 °F 39% 30.21 in 10.0 mi SE 4.6 mph - N/A   Scattered Clouds
1:35 PM 77.4 °F 47.8 °F 35% 30.21 in 10.0 mi East 6.9 mph - N/A   Scattered Clouds
1:55 PM 78.6 °F 48.7 °F 35% 30.21 in 10.0 mi ENE 6.9 mph - N/A   Overcast
2:14 PM 78.8 °F 48.0 °F 34% 30.20 in 10.0 mi East 10.4 mph - N/A   Overcast
2:35 PM 77.0 °F 47.1 °F 35% 30.20 in 10.0 mi SE 5.8 mph - N/A   Overcast
2:55 PM 78.8 °F 48.0 °F 34% 30.19 in 10.0 mi NW 5.8 mph - N/A   Mostly Cloudy
3:14 PM 76.1 °F 44.4 °F 32% 30.19 in 10.0 mi Calm Calm - N/A   Scattered Clouds
3:35 PM 78.8 °F 46.4 °F 32% 30.19 in 10.0 mi ENE 5.8 mph - N/A   Overcast
3:55 PM 78.3 °F 46.6 °F 33% 30.19 in 10.0 mi NE 5.8 mph - N/A   Overcast
4:14 PM 76.5 °F 45.7 °F 33% 30.18 in 10.0 mi Calm Calm - N/A   Mostly Cloudy
4:35 PM 78.8 °F 46.0 °F 31% 30.18 in 10.0 mi ESE 3.5 mph - N/A   Scattered Clouds
4:54 PM 79.5 °F 46.0 °F 31% 30.17 in 10.0 mi SW 3.5 mph - N/A   Scattered Clouds
5:15 PM 79.9 °F 45.5 °F 30% 30.17 in 10.0 mi NNE 3.5 mph - N/A   Mostly Cloudy
5:35 PM 78.8 °F 45.5 °F 31% 30.17 in 10.0 mi East 5.8 mph - N/A   Overcast
5:54 PM 78.8 °F 46.2 °F 32% 30.16 in 10.0 mi East 5.8 mph - N/A   Mostly Cloudy
6:15 PM 77.9 °F 46.2 °F 33% 30.17 in 10.0 mi East 4.6 mph - N/A   Scattered Clouds
6:35 PM 77.9 °F 46.0 °F 32% 30.17 in 10.0 mi East 6.9 mph - N/A   Clear
6:54 PM 76.5 °F 45.5 °F 33% 30.17 in 10.0 mi ENE 4.6 mph - N/A   Clear
7:15 PM 76.1 °F 45.1 °F 33% 30.17 in 10.0 mi Calm Calm - N/A   Clear
7:34 PM 74.7 °F 46.4 °F 37% 30.17 in 10.0 mi East 3.5 mph - N/A   Clear
7:55 PM 72.9 °F 51.3 °F 47% 30.17 in 10.0 mi ESE 9.2 mph - N/A   Scattered Clouds
8:15 PM 73.6 °F 53.6 °F 50% 30.18 in 10.0 mi SE 10.4 mph 17.3 mph N/A   Mostly Cloudy
8:35 PM 71.8 °F 56.8 °F 59% 30.19 in 10.0 mi ESE 16.1 mph - N/A   Mostly Cloudy
8:55 PM 68.5 °F 55.8 °F 64% 30.20 in 10.0 mi ESE 11.5 mph - N/A   Scattered Clouds
9:15 PM 68.5 °F 56.1 °F 64% 30.21 in 10.0 mi SE 9.2 mph - N/A   Mostly Cloudy
9:34 PM 68.5 °F 55.8 °F 64% 30.23 in 10.0 mi SE 9.2 mph - N/A   Overcast
9:55 PM 67.5 °F 54.9 °F 64% 30.23 in 10.0 mi SE 11.5 mph - N/A   Scattered Clouds
10:15 PM 66.0 °F 54.0 °F 65% 30.23 in 10.0 mi ESE 9.2 mph - N/A   Clear
10:34 PM 63.5 °F 52.7 °F 68% 30.23 in 10.0 mi SE 8.1 mph - N/A   Clear
10:55 PM 62.4 °F 52.2 °F 69% 30.23 in 10.0 mi SE 5.8 mph - N/A   Clear
11:15 PM 61.0 °F 52.2 °F 73% 30.24 in 10.0 mi ESE 4.6 mph - N/A   Clear
11:34 PM 59.0 °F 52.2 °F 78% 30.24 in 10.0 mi ESE 3.5 mph - N/A   Clear
11:55 PM 58.5 °F 53.6 °F 84% 30.25 in 10.0 mi SE 3.5 mph - N/A   Clear